星链-32133 (STARLINK-32133)

导读 | 星芒AI

STARLINK-32133 是 SpaceX Starlink 项目中的一颗低轨通信卫星,属于第三代星链卫星群(v1.5)。该卫星于2023年发射,旨在为全球用户提供高速互联网服务。它运行在约550公里高度的近地轨道,配备先进相控阵天线和激光通信系统,以提升网络连接效率和稳定性。作为星链计划的重要组成部分,STARLINK-32133 有助于扩大覆盖范围,特别是在偏远和农村地区,推动全球互联网接入的普及。

基本信息
目录编号:
60333
目录名称:
STARLINK-32133
国际标识:
2024-136E
轨道中心:
EARTH
卫星名称:
星链-32133 (STARLINK-32133)
卫星全名:
星链-32133 (STARLINK-32133)
卫星状态:
在轨 (已飞行458 天)
发射日期:
2024-08-02 UTC
国别 :
美国 (US)
星等 :
--
轨道信息
数据来源 国际轨道数据 AOE轨道数据
星历时间 2025-11-02T14:37:59+0800
1天前
查看轨道信息
2025-11-01T13:00:00+0800
2天前
查看轨道信息
半长轴 6853.367km 6853.374km
偏心率 0.0001581 0.0000644
轨道倾角 53.160° 53.162°
近地点辐角 98.975° 65.986°
升交点赤经 307.730° 312.697°
平近点角 261.143° 167.282°
近地点 474.148km 474.797km
远地点 476.316km 475.681km
周期 94.106分钟 94.106分钟
每日圈数 15.301952 15.301927
详细信息
卫星平台:
Starlink v2.0 mini
运营商:
太空探索技术公司
运营商所在国:
美国
制造商(研发单位):
太空探索技术公司
制造商所在国:
美国
使用方式:
暂无
卫星简介
星链(Starlink)计划是由太空探索技术公司(SpaceX)提出的一个巨型低轨卫星互联网星座项目,计划在2019年至2024年间在太空搭建由约1.2万颗卫星组成的“星链”网络,其中1584颗将部署在地球上空550千米处的近地轨道,并从2020年开始工作。该卫星仍在工作。
2D轨道图
3D轨道图
轨道高度分析图
轨道倾角分析图
轨道综合分析图
查看轨道综合分析图